ANA606 RJTH-RJTT

Flight info

Callsign ANA606
Flight time N/A
Altitude 23000
Route TOPIT Y875 AROSA
Aircraft B78X/H-SDE1E2E3FGHIJ2J3J4J5M1RWXY/LB1D1

Departure

Time 2026-05-08 05:23
Airport Hachijojima Airport (RJTH)

Arrival

Time N/A
Airport Tokyo Haneda International Airport (RJTT)
Time Latitude Longitude Altitude Speed Heading
2026-05-08 04:59 33.11546 139.78246 295 ft 0 kts 335°
2026-05-08 05:16 33.11548 139.78246 294 ft 0 kts 337°
2026-05-08 05:16 33.11552 139.78247 293 ft 1 kts
2026-05-08 05:16 33.11558 139.78260 295 ft 2 kts 60°
2026-05-08 05:16 33.11546 139.78298 291 ft 10 kts 117°
2026-05-08 05:17 33.11509 139.78343 293 ft 8 kts 146°
2026-05-08 05:17 33.11461 139.78369 292 ft 4 kts 147°
2026-05-08 05:17 33.11457 139.78380 291 ft 1 kts 111°
2026-05-08 05:17 33.11462 139.78415 290 ft 10 kts 80°
2026-05-08 05:18 33.11498 139.78540 290 ft 21 kts 69°
2026-05-08 05:18 33.11566 139.78750 289 ft 33 kts 69°
2026-05-08 05:18 33.11658 139.79045 288 ft 41 kts 69°
2026-05-08 05:18 33.11746 139.79327 290 ft 32 kts 73°
2026-05-08 05:19 33.11794 139.79547 289 ft 15 kts 64°
2026-05-08 05:19 33.11815 139.79558 288 ft 1 kts 355°
2026-05-08 05:19 33.11819 139.79552 288 ft 1 kts 323°
2026-05-08 05:19 33.11819 139.79543 288 ft 1 kts 283°
2026-05-08 05:20 33.11815 139.79535 289 ft 1 kts 244°
2026-05-08 05:20 33.11808 139.79523 288 ft 3 kts 245°
2026-05-08 05:20 33.11804 139.79510 288 ft 0 kts 249°
2026-05-08 05:21 33.11800 139.79499 291 ft 11 kts 249°
2026-05-08 05:22 33.11722 139.79265 289 ft 50 kts 249°
2026-05-08 05:22 33.11556 139.78739 292 ft 86 kts 249°
2026-05-08 05:22 33.11292 139.77855 389 ft 130 kts 255°
2026-05-08 05:22 33.10914 139.76768 682 ft 153 kts 245°
2026-05-08 05:23 33.10537 139.75449 910 ft 184 kts 249°
2026-05-08 05:23 33.10139 139.73840 1015 ft 219 kts 250°
2026-05-08 05:23 33.09687 139.72029 1546 ft 231 kts 250°
2026-05-08 05:23 33.09230 139.70195 2283 ft 232 kts 251°
2026-05-08 05:24 33.09136 139.68278 2970 ft 242 kts 273°
2026-05-08 05:24 33.09673 139.66352 3685 ft 253 kts 294°
2026-05-08 05:24 33.10853 139.64741 4412 ft 267 kts 317°
2026-05-08 05:24 33.12574 139.63792 5086 ft 282 kts 342°
2026-05-08 05:25 33.14572 139.63812 5751 ft 296 kts
2026-05-08 05:25 33.16579 139.64452 6359 ft 301 kts 11°
2026-05-08 05:25 33.18598 139.65161 6930 ft 304 kts 12°
2026-05-08 05:25 33.20637 139.65867 7503 ft 307 kts 11°
2026-05-08 05:26 33.22702 139.66554 8059 ft 310 kts 11°
2026-05-08 05:26 33.24792 139.67249 8613 ft 313 kts 11°
2026-05-08 05:26 33.26879 139.67954 9541 ft 317 kts 11°
2026-05-08 05:26 33.29030 139.68681 10459 ft 329 kts 11°
2026-05-08 05:27 33.31261 139.69430 11248 ft 342 kts 11°
2026-05-08 05:27 33.33621 139.70222 11860 ft 363 kts 12°
2026-05-08 05:27 33.36124 139.71068 12419 ft 384 kts 12°
2026-05-08 05:27 33.38768 139.71963 12954 ft 406 kts 12°
2026-05-08 05:28 33.41546 139.72903 13630 ft 421 kts 12°
2026-05-08 05:28 33.44384 139.73866 14457 ft 427 kts 12°
2026-05-08 05:28 33.47266 139.74842 15336 ft 433 kts 12°
2026-05-08 05:28 33.50145 139.75816 16186 ft 439 kts 12°
2026-05-08 05:29 33.53101 139.76816 17026 ft 444 kts 12°
2026-05-08 05:29 33.56091 139.77830 17848 ft 450 kts 12°
2026-05-08 05:29 33.59122 139.78860 18587 ft 455 kts 12°
2026-05-08 05:29 33.62182 139.79899 19270 ft 460 kts 12°
2026-05-08 05:30 33.65283 139.80953 19957 ft 465 kts 12°
2026-05-08 05:30 33.68411 139.82017 20635 ft 471 kts 12°
2026-05-08 05:30 33.71559 139.83090 21521 ft 469 kts 12°
2026-05-08 05:30 33.74691 139.84158 22418 ft 469 kts 12°
2026-05-08 05:31 33.77803 139.85217 22904 ft 471 kts 12°
2026-05-08 05:31 33.80938 139.86287 22947 ft 467 kts 12°
2026-05-08 05:31 33.84057 139.87353 22939 ft 465 kts 12°
2026-05-08 05:31 33.87164 139.88414 22943 ft 465 kts 12°
2026-05-08 05:32 33.90274 139.89473 22943 ft 464 kts 11°
2026-05-08 05:32 33.93383 139.90538 22934 ft 465 kts 12°
2026-05-08 05:32 33.96492 139.91607 22943 ft 465 kts 11°
2026-05-08 05:32 33.99602 139.92673 22942 ft 465 kts 11°
2026-05-08 05:33 34.02717 139.93739 22938 ft 465 kts 11°
2026-05-08 05:33 34.05830 139.94807 22939 ft 465 kts 11°
2026-05-08 05:33 34.08945 139.95878 22939 ft 465 kts 11°
2026-05-08 05:33 34.12057 139.96948 22936 ft 466 kts 11°
2026-05-08 05:34 34.15170 139.98049 22946 ft 467 kts 15°
2026-05-08 05:34 34.18131 139.99724 22944 ft 475 kts 28°
2026-05-08 05:34 34.20753 140.02077 22952 ft 479 kts 41°
2026-05-08 05:34 34.22981 140.05071 22947 ft 481 kts 52°
2026-05-08 05:35 34.25026 140.08274 22937 ft 482 kts 52°
2026-05-08 05:35 34.27048 140.11503 22944 ft 481 kts 52°
2026-05-08 05:35 34.29048 140.14750 22946 ft 481 kts 55°
2026-05-08 05:35 34.30660 140.18291 22945 ft 481 kts 67°
2026-05-08 05:36 34.32011 140.21997 22945 ft 482 kts 67°
2026-05-08 05:36 34.33327 140.25725 22944 ft 481 kts 68°
2026-05-08 05:36 34.34636 140.29449 22946 ft 481 kts 67°
2026-05-08 05:36 34.35966 140.33166 22944 ft 481 kts 67°
2026-05-08 05:37 34.37283 140.36837 22861 ft 483 kts 67°
2026-05-08 05:37 34.38608 140.40567 22581 ft 481 kts 67°
2026-05-08 05:37 34.39920 140.44280 22030 ft 479 kts 67°
2026-05-08 05:37 34.41236 140.47992 21610 ft 481 kts 67°
2026-05-08 05:38 34.42561 140.51726 21271 ft 484 kts 67°
2026-05-08 05:38 34.43887 140.55469 20957 ft 484 kts 67°
2026-05-08 05:38 34.45210 140.59218 20674 ft 485 kts 67°
2026-05-08 05:38 34.46663 140.62901 20417 ft 485 kts 58°
2026-05-08 05:39 34.48718 140.66132 20182 ft 484 kts 44°
2026-05-08 05:39 34.51306 140.68716 19992 ft 481 kts 29°
2026-05-08 05:39 34.54229 140.70490 19785 ft 473 kts 15°
2026-05-08 05:39 34.57385 140.71412 19596 ft 463 kts
2026-05-08 05:40 34.60561 140.71432 19410 ft 452 kts 348°
2026-05-08 05:40 34.63658 140.70895 19207 ft 448 kts 343°
2026-05-08 05:40 34.66724 140.70238 18952 ft 448 kts 343°
2026-05-08 05:40 34.69766 140.69479 18565 ft 441 kts 337°
2026-05-08 05:41 34.72586 140.68179 18201 ft 429 kts 327°
2026-05-08 05:41 34.75147 140.66406 17795 ft 421 kts 321°
2026-05-08 05:41 34.77640 140.64547 17356 ft 419 kts 321°
2026-05-08 05:41 34.80156 140.62762 16925 ft 418 kts 323°
2026-05-08 05:42 34.82644 140.61053 16504 ft 412 kts 323°
2026-05-08 05:42 34.85099 140.59335 16085 ft 402 kts 322°
2026-05-08 05:42 34.87466 140.57646 15985 ft 385 kts 322°
2026-05-08 05:42 34.89732 140.56036 15906 ft 369 kts 322°
2026-05-08 05:43 34.91928 140.54482 15525 ft 365 kts 321°
2026-05-08 05:43 34.94150 140.52895 14977 ft 377 kts 322°
2026-05-08 05:43 34.96477 140.51233 14396 ft 397 kts 323°
2026-05-08 05:43 34.98803 140.49591 13814 ft 403 kts 323°
2026-05-08 05:44 35.01218 140.47894 13191 ft 399 kts 323°
2026-05-08 05:44 35.03607 140.46201 12593 ft 393 kts 323°
2026-05-08 05:44 35.05703 140.44704 12066 ft 388 kts 323°
2026-05-08 05:44 35.08017 140.43055 11494 ft 382 kts 323°
2026-05-08 05:45 35.10297 140.41434 11021 ft 375 kts 323°
2026-05-08 05:45 35.12507 140.39867 10861 ft 359 kts 323°
2026-05-08 05:45 35.14620 140.38364 10717 ft 343 kts 323°
2026-05-08 05:45 35.16635 140.36924 10582 ft 329 kts 322°
2026-05-08 05:46 35.18571 140.35541 10451 ft 316 kts 322°
2026-05-08 05:46 35.20430 140.34215 10327 ft 303 kts 322°
2026-05-08 05:46 35.22214 140.32940 10154 ft 292 kts 321°
2026-05-08 05:46 35.23930 140.31710 9888 ft 287 kts 321°
2026-05-08 05:47 35.25638 140.30487 9619 ft 282 kts 321°
2026-05-08 05:47 35.27314 140.29287 9341 ft 277 kts 321°
2026-05-08 05:47 35.28965 140.28106 9077 ft 275 kts 321°
2026-05-08 05:47 35.30625 140.26914 8823 ft 277 kts 322°
2026-05-08 05:48 35.32273 140.25737 8560 ft 271 kts 321°
2026-05-08 05:48 35.33906 140.24565 8301 ft 273 kts 322°
2026-05-08 05:48 35.35528 140.23402 8052 ft 267 kts 322°
2026-05-08 05:48 35.37162 140.22294 7788 ft 275 kts 331°
2026-05-08 05:49 35.39091 140.21845 7508 ft 285 kts 348°
2026-05-08 05:49 35.40921 140.21652 7208 ft 285 kts 349°
2026-05-08 05:49 35.42831 140.21484 6925 ft 284 kts 349°
2026-05-08 05:49 35.44778 140.21293 6997 ft 283 kts 348°
2026-05-08 05:50 35.46739 140.21083 7001 ft 281 kts 348°
2026-05-08 05:50 35.48702 140.20878 7000 ft 283 kts 348°
2026-05-08 05:50 35.50653 140.20645 6996 ft 279 kts 342°
2026-05-08 05:50 35.52394 140.19756 6864 ft 270 kts 319°
2026-05-08 05:51 35.53679 140.18181 6474 ft 257 kts 297°
2026-05-08 05:51 35.54408 140.16237 6111 ft 248 kts 284°
2026-05-08 05:51 35.54990 140.14242 5719 ft 247 kts 284°
2026-05-08 05:51 35.55555 140.12275 5373 ft 239 kts 284°
2026-05-08 05:52 35.56089 140.10432 5033 ft 226 kts 284°
2026-05-08 05:52 35.56603 140.08655 4674 ft 216 kts 283°
2026-05-08 05:52 35.57095 140.06947 4290 ft 209 kts 283°
2026-05-08 05:52 35.57573 140.05285 3894 ft 204 kts 282°
2026-05-08 05:53 35.58029 140.03716 3830 ft 186 kts 281°
2026-05-08 05:53 35.58446 140.02272 3664 ft 176 kts 281°
2026-05-08 05:53 35.58847 140.00860 3391 ft 174 kts 280°
2026-05-08 05:53 35.59247 139.99465 3131 ft 171 kts 280°
2026-05-08 05:54 35.59634 139.98135 2872 ft 158 kts 279°
2026-05-08 05:54 35.59981 139.96941 2660 ft 147 kts 278°
2026-05-08 05:54 35.60308 139.95791 2504 ft 140 kts 278°
2026-05-08 05:54 35.60631 139.94644 2374 ft 142 kts 278°
2026-05-08 05:55 35.60960 139.93491 2229 ft 145 kts 278°
2026-05-08 05:55 35.61284 139.92329 2076 ft 142 kts 276°
2026-05-08 05:55 35.61239 139.91187 1860 ft 129 kts 243°
2026-05-08 05:55 35.60765 139.90263 1786 ft 128 kts 232°
2026-05-08 05:56 35.60182 139.89460 1676 ft 125 kts 222°
2026-05-08 05:56 35.59575 139.88689 1563 ft 127 kts 222°
2026-05-08 05:56 35.58973 139.87930 1403 ft 125 kts 221°
2026-05-08 05:56 35.58404 139.87057 1223 ft 136 kts 223°
2026-05-08 05:57 35.57745 139.86281 1047 ft 133 kts 217°
2026-05-08 05:57 35.57028 139.85517 841 ft 135 kts 219°
2026-05-08 05:57 35.56281 139.84729 670 ft 140 kts 218°
2026-05-08 05:57 35.55570 139.83917 484 ft 145 kts 218°
2026-05-08 05:58 35.54888 139.83114 311 ft 130 kts 219°
2026-05-08 05:58 35.54171 139.82316 135 ft 147 kts 217°
2026-05-08 05:58 35.53543 139.81536 30 ft 95 kts 236°